W4KUS-10 Weather Reports


time (UTC)temp
C
wind
direction
speed
KPH
gust
KPH
rain 1hr
cm
rain 24hr
cm
rain mn
cm
humidity
%
barometer
mb
20260906121126 22 284 0.0 0.0 0.00 2.13 0.00 94 1011.3
20260906120518 22 284 0.0 1.6 0.00 2.13 0.00 94 1011.3
20260906120126 22 199 0.0 0.0 0.00 2.13 0.00 94 1011.1
20260906115526 22 199 0.0 1.6 0.00 2.13 0.00 94 1011.0
20260906115126 22 50 0.0 0.0 0.00 2.13 0.00 94 1011.0
20260906115022 22 50 0.0 0.0 0.00 2.13 0.00 94 1011.0
20260906114526 22 50 0.0 0.0 0.00 2.13 0.00 94 1011.0
20260906114126 22 50 0.0 0.0 0.00 2.13 0.00 94 1011.0
20260906113518 22 50 0.0 0.0 0.00 2.13 0.00 94 1011.0
20260906113126 22 50 0.0 0.0 0.00 2.13 0.00 94 1011.0
20260906112526 22 50 0.0 0.0 0.00 2.13 0.00 94 1011.0
20260906112126 22 50 0.0 0.0 0.00 2.13 0.00 94 1011.0
20260906112024 22 50 0.0 0.0 0.00 2.13 0.00 94 1011.0
20260906111526 22 50 0.0 0.0 0.00 2.13 0.00 94 1011.0
20260906111126 22 50 0.0 0.0 0.00 2.13 0.00 94 1011.0
20260906110525 22 50 0.0 0.0 0.00 2.13 0.00 94 1010.8
20260906110126 22 50 0.0 0.0 0.00 2.13 0.00 94 1010.8
20260906105526 22 50 0.0 0.0 0.00 2.13 0.00 94 1010.8
20260906105126 22 50 0.0 0.0 0.00 2.13 0.00 94 1010.7
20260906105018 22 50 0.0 0.0 0.00 2.13 0.00 94 1010.7
20260906104526 22 50 0.0 0.0 0.00 2.13 0.00 94 1010.6
20260906104126 22 50 0.0 0.0 0.00 2.13 0.00 94 1010.5
20260906103523 22 50 0.0 0.0 0.00 2.13 0.00 94 1010.4
20260906103126 22 50 0.0 0.0 0.00 2.13 0.00 94 1010.4
20260906102526 22 50 0.0 0.0 0.00 2.13 0.00 94 1010.4
20260906102126 22 50 0.0 0.0 0.00 2.13 0.00 94 1010.4
20260906101526 22 50 0.0 0.0 0.00 2.13 0.00 94 1010.4
20260906101126 22 50 0.0 0.0 0.00 2.13 0.00 94 1010.3
20260906100526 22 50 0.0 0.0 0.00 2.13 0.00 94 1010.2
20260906100126 22 50 0.0 0.0 0.00 2.13 0.00 94 1010.2
20260906095526 22 50 0.0 0.0 0.00 2.13 0.00 94 1010.3
20260906095126 22 50 0.0 0.0 0.00 2.13 0.00 94 1010.2
20260906094526 22 50 0.0 0.0 0.00 2.13 0.00 94 1010.2
20260906094126 22 50 0.0 0.0 0.00 2.13 0.00 94 1010.1
20260906093526 22 50 0.0 0.0 0.00 2.13 0.00 94 1010.1
20260906093126 22 50 0.0 0.0 0.00 2.13 0.00 94 1010.1
20260906092526 22 50 0.0 0.0 0.00 2.13 0.00 94 1010.0
20260906092126 22 50 0.0 0.0 0.00 2.13 0.00 94 1010.0
20260906091526 22 50 0.0 0.0 0.00 2.13 0.00 94 1009.9
20260906091126 22 50 0.0 0.0 0.00 2.13 0.00 94 1009.8
20260906090526 22 50 0.0 0.0 0.00 2.13 0.00 94 1009.9
20260906090126 22 50 0.0 0.0 0.00 2.13 0.00 94 1009.9
20260906085526 22 50 0.0 0.0 0.00 2.13 0.00 94 1010.0
20260906085126 22 50 0.0 1.6 0.00 2.13 0.00 94 1010.0
20260906084526 22 31 0.0 0.0 0.00 2.13 0.00 94 1009.9
20260906084126 22 31 0.0 0.0 0.00 2.13 0.00 94 1009.9
20260906083526 22 31 0.0 0.0 0.00 2.13 0.00 94 1009.8
20260906083126 22 31 0.0 0.0 0.00 2.13 0.00 94 1009.7
20260906082526 22 31 0.0 0.0 0.00 2.13 0.00 94 1009.8
20260906082126 22 31 0.0 0.0 0.00 2.13 0.00 94 1009.9
20260906081526 22 31 0.0 0.0 0.00 2.13 0.00 94 1009.9
20260906081126 22 31 0.0 0.0 0.00 2.13 0.00 94 1009.7
20260906080526 22 31 0.0 0.0 0.00 2.13 0.00 94 1009.7
20260906080126 22 31 0.0 0.0 0.00 2.13 0.00 94 1009.8
20260906075526 22 31 0.0 0.0 0.00 2.13 0.00 94 1010.0
20260906075126 22 31 0.0 0.0 0.00 2.13 0.00 94 1009.8
20260906074526 22 31 0.0 0.0 0.00 2.13 0.00 94 1009.8
20260906074126 22 31 0.0 0.0 0.00 2.13 0.00 94 1009.9
20260906073526 22 31 0.0 0.0 0.00 2.13 0.00 94 1010.0
20260906073126 22 31 0.0 1.6 0.00 2.13 0.00 94 1009.9
20260906072526 22 65 0.0 0.0 0.00 2.13 0.00 94 1009.8
20260906072126 22 65 0.0 0.0 0.00 2.13 0.00 94 1009.8
20260906071526 22 65 0.0 0.0 0.00 2.13 0.00 93 1009.8
20260906071126 22 65 0.0 0.0 0.00 2.13 0.00 93 1009.8
20260906070526 22 65 0.0 0.0 0.00 2.13 0.00 93 1009.9
20260906070126 22 65 0.0 1.6 0.00 2.13 0.00 93 1009.9
20260906065526 22 335 0.0 0.0 0.00 2.13 0.00 93 1009.9
20260906065126 22 335 0.0 0.0 0.00 2.13 0.00 93 1010.1
20260906064526 22 335 0.0 0.0 0.00 2.13 0.00 93 1010.1
20260906064126 22 335 0.0 0.0 0.00 2.13 0.00 93 1010.2
20260906063526 22 335 0.0 0.0 0.00 2.13 0.00 93 1010.2
20260906063126 22 335 0.0 0.0 0.00 2.13 0.00 93 1010.3
20260906062526 22 335 0.0 0.0 0.00 2.13 0.00 93 1010.3
20260906062126 22 335 0.0 0.0 0.00 2.13 0.00 93 1010.3
20260906061526 22 335 0.0 0.0 0.00 2.13 0.00 93 1010.2
20260906061126 22 335 0.0 0.0 0.00 2.13 0.00 93 1010.4
20260906060526 22 335 0.0 0.0 0.00 2.13 0.00 93 1010.4
20260906060126 22 335 0.0 0.0 0.00 2.13 0.00 93 1010.2
20260906055526 22 335 0.0 0.0 0.00 2.13 0.00 93 1010.3
20260906055126 22 335 0.0 0.0 0.00 2.13 0.00 93 1010.3
20260906054526 22 335 0.0 0.0 0.00 2.13 0.00 93 1010.2
20260906054126 23 335 0.0 0.0 0.00 2.13 0.00 93 1010.0
20260906053526 23 335 0.0 0.0 0.00 2.13 0.00 93 1010.1
20260906053126 23 335 0.0 0.0 0.00 2.13 0.00 93 1010.1
20260906052526 23 335 0.0 0.0 0.00 2.13 0.00 93 1010.0
20260906052126 23 335 0.0 0.0 0.00 2.13 0.00 93 1010.0
20260906051526 23 335 0.0 0.0 0.00 2.13 0.00 93 1010.2
20260906051126 23 335 0.0 0.0 0.00 2.13 0.00 93 1010.1
20260906050526 23 335 0.0 0.0 0.00 2.13 0.00 93 1010.1
20260906050126 23 335 0.0 0.0 0.00 2.13 0.56 93 1010.3
20260906045526 23 335 0.0 0.0 0.00 2.13 2.13 93 1010.3
20260906045126 23 335 0.0 0.0 0.00 2.13 2.13 93 1010.3
20260906044526 23 335 0.0 0.0 0.00 2.13 2.13 93 1010.3
20260906044126 23 335 0.0 0.0 0.00 2.13 2.13 93 1010.5
20260906043526 23 335 0.0 0.0 0.00 2.13 2.13 93 1010.4
20260906043126 23 335 0.0 0.0 0.00 2.13 2.13 93 1010.3
20260906042526 23 335 0.0 0.0 0.00 2.13 2.13 93 1010.4
20260906042126 23 335 0.0 0.0 0.00 2.13 2.13 93 1010.3
20260906041527 23 289 0.0 3.2 0.00 2.13 2.13 93 1010.4
20260906041127 23 266 0.0 3.2 0.00 2.13 2.13 93 1010.3
20260906040526 23 320 0.0 1.6 0.00 2.13 2.13 93 1010.3
20260906040127 23 256 0.0 0.0 0.00 2.13 2.13 93 1010.3
20260906035527 23 256 0.0 3.2 0.00 2.13 2.13 93 1010.1
20260906035127 23 285 0.0 3.2 0.00 2.13 2.13 93 1010.2
20260906034527 23 275 0.0 4.8 0.10 2.13 2.13 92 1010.1
20260906034127 23 341 0.0 0.0 0.10 2.13 2.13 92 1010.2
20260906033527 23 341 0.0 1.6 0.10 2.11 2.13 92 1010.3
20260906033127 23 281 0.0 0.0 0.00 2.11 2.11 92 1010.3
20260906032527 23 281 0.0 0.0 0.00 2.11 2.11 92 1010.4
20260906032127 23 281 0.0 1.6 0.00 2.11 2.11 92 1010.4
20260906031527 23 284 0.0 1.6 0.00 2.11 2.11 92 1010.3
20260906031127 23 231 0.0 0.0 0.00 2.11 2.11 92 1010.4
20260906030527 23 231 0.0 0.0 0.00 2.11 2.11 92 1010.5
20260906030127 23 231 0.0 0.0 0.00 2.11 2.11 92 1010.6
20260906025527 23 231 0.0 0.0 0.00 2.11 2.11 92 1010.6
20260906025127 23 231 0.0 0.0 0.00 2.11 2.11 92 1010.6
20260906025023 23 231 0.0 0.0 0.00 2.11 2.11 92 1010.6
20260906024527 23 231 0.0 0.0 0.00 2.11 2.11 92 1010.7
20260906024127 23 231 0.0 0.0 0.00 2.11 2.11 92 1010.8
20260906023523 23 231 0.0 4.8 0.00 2.11 2.11 92 1010.9
20260906023127 23 267 0.0 3.2 0.00 2.11 2.11 92 1011.0
20260906022527 23 159 0.0 3.2 0.00 2.11 2.11 92 1010.9
20260906022127 24 212 1.6 4.8 0.00 2.11 2.11 92 1010.9
20260906021527 24 202 1.6 4.8 0.00 2.11 2.11 92 1011.0
20260906021127 24 212 0.0 9.7 0.00 2.11 2.11 92 1011.0
20260906020518 24 242 0.0 3.2 0.00 2.11 2.11 92 1011.0
20260906020127 24 195 0.0 1.6 0.00 2.11 2.11 92 1011.0
20260906015527 24 151 0.0 4.8 0.00 2.11 2.11 92 1011.0
20260906015127 24 173 0.0 1.6 0.00 2.11 2.11 92 1011.1
20260906015023 24 173 0.0 1.6 0.00 2.11 2.11 92 1011.1
20260906014527 24 213 0.0 4.8 0.00 2.11 2.11 92 1011.2
20260906014127 24 178 1.6 4.8 0.00 2.11 2.11 92 1011.0
20260906013522 24 181 1.6 4.8 0.00 2.11 2.11 92 1010.8
20260906013127 23 185 3.2 8.0 0.00 2.11 2.11 92 1010.8
20260906012527 23 175 1.6 9.7 0.00 2.11 2.11 92 1010.9
20260906012127 23 223 1.6 14.5 0.00 2.11 2.11 92 1010.8
20260906011527 23 191 1.6 8.0 0.00 2.11 2.11 92 1010.8
20260906011127 23 179 1.6 6.4 0.00 2.11 2.11 92 1010.7
20260906010524 23 166 1.6 6.4 0.00 2.11 2.11 92 1010.4
20260906010127 23 192 0.0 6.4 0.00 2.11 2.11 92 1010.4
20260906005527 23 292 0.0 0.0 0.08 2.11 2.11 92 1010.5
20260906005127 23 292 0.0 0.0 0.10 2.11 2.11 92 1010.8
20260906005017 23 292 0.0 0.0 0.10 2.11 2.11 92 1010.8
20260906004527 23 292 0.0 0.0 0.15 2.11 2.11 92 1011.2
20260906004127 23 292 0.0 0.0 0.13 2.08 2.08 92 1011.5
20260906003523 23 292 0.0 0.0 0.15 2.08 2.08 92 1011.6
20260906003127 23 292 0.0 0.0 0.15 2.06 2.06 92 1011.5
20260906002527 23 292 0.0 0.0 0.10 2.06 2.06 91 1011.4
20260906002127 23 292 0.0 0.0 0.05 2.03 2.03 91 1011.4
20260906002023 23 292 0.0 0.0 0.05 2.03 2.03 91 1011.4
20260906001527 23 292 0.0 0.0 0.00 2.03 2.03 91 1011.2
20260906001127 23 292 0.0 0.0 0.00 2.03 2.03 91 1010.9
20260906000516 23 292 0.0 0.0 0.00 2.03 2.03 91 1010.7
20260906000127 23 292 0.0 0.0 0.00 2.03 2.03 91 1010.5
20260905235527 23 292 0.0 0.0 0.03 2.03 2.03 91 1010.5
20260905235127 23 292 0.0 0.0 0.10 2.03 2.03 91 1010.3
20260905235023 23 292 0.0 0.0 0.10 2.03 2.03 91 1010.3
20260905234527 23 292 0.0 0.0 0.10 2.03 2.03 91 1010.1
20260905234127 23 292 0.0 0.0 0.15 2.01 2.03 91 1010.0
20260905233522 23 292 0.0 0.0 0.10 2.01 2.01 91 1010.1
20260905233127 23 292 0.0 0.0 0.18 2.01 2.01 90 1010.3
20260905232527 23 292 0.0 0.0 0.13 1.98 1.98 90 1010.1
20260905232127 22 292 0.0 0.0 0.10 1.98 1.98 90 1010.6
20260905232023 22 292 0.0 0.0 0.10 1.98 1.98 90 1010.6
20260905231527 22 292 0.0 0.0 0.10 1.96 1.96 89 1010.5
20260905231127 22 292 0.0 0.0 0.76 1.96 1.96 89 1010.1
20260905230522 23 292 0.0 0.0 3.02 1.96 1.96 87 1009.8
20260905230127 23 292 0.0 0.0 5.97 1.91 1.93 86 1009.6
20260905225527 24 292 0.0 3.2 7.01 1.55 1.78 83 1009.9
20260905225127 25 292 1.6 8.0 4.78 0.81 1.19 78 1010.7
20260905225024 25 292 1.6 8.0 4.78 0.81 1.19 78 1010.7
20260905224527 27 313 3.2 19.3 1.78 0.08 0.43 70 1010.6
20260905224127 29 314 4.8 22.5 0.05 0.00 0.03 54 1010.1
20260905223522 30 294 3.2 22.5 0.00 0.00 0.00 50 1009.9
20260905223127 31 318 3.2 22.5 0.00 0.00 0.00 56 1008.9
20260905222527 32 315 0.0 4.8 0.00 0.00 0.00 65 1007.8
20260905222127 32 222 0.0 0.0 0.00 0.00 0.00 65 1007.5
20260905222023 32 222 0.0 0.0 0.00 0.00 0.00 65 1007.5
20260905221527 32 222 0.0 0.0 0.00 0.00 0.00 64 1007.5
20260905221127 33 222 0.0 0.0 0.00 0.00 0.00 63 1007.7
20260905220522 33 222 0.0 1.6 0.00 0.00 0.00 62 1007.8
20260905220127 33 278 0.0 6.4 0.00 0.00 0.00 61 1007.9
20260905215527 33 305 0.0 4.8 0.00 0.00 0.00 60 1008.5
20260905215127 33 287 0.0 11.3 0.00 0.00 0.00 59 1008.2
20260905215024 33 287 0.0 11.3 0.00 0.00 0.00 59 1008.2
20260905214527 34 249 0.0 0.0 0.00 0.00 0.00 59 1007.9
20260905214127 34 249 1.6 12.9 0.00 0.00 0.00 57 1007.9
20260905213522 35 272 0.0 11.3 0.00 0.00 0.00 56 1008.1
20260905213127 35 256 0.0 11.3 0.00 0.00 0.00 53 1008.0
20260905212527 35 218 0.0 6.4 0.00 0.00 0.00 51 1008.0
20260905212127 35 287 0.0 9.7 0.00 0.00 0.00 49 1007.9
20260905212022 35 287 0.0 9.7 0.00 0.00 0.00 49 1007.9
20260905211527 35 282 0.0 9.7 0.00 0.00 0.00 49 1007.9
20260905211127 35 237 0.0 16.1 0.00 0.00 0.00 49 1007.8
20260905210527 35 280 0.0 0.0 0.00 0.00 0.00 50 1007.7
20260905210127 35 280 0.0 3.2 0.00 0.00 0.00 51 1007.7
20260905205527 35 280 0.0 3.2 0.00 0.00 0.00 52 1007.5
20260905205127 35 293 0.0 0.0 0.00 0.00 0.00 53 1007.3
20260905205023 35 293 0.0 0.0 0.00 0.00 0.00 53 1007.3
20260905204527 35 293 0.0 0.0 0.00 0.00 0.00 53 1007.2
20260905204127 35 293 0.0 6.4 0.00 0.00 0.00 55 1007.4
20260905203523 35 344 0.0 0.0 0.00 0.00 0.00 54 1007.3
20260905203127 35 344 0.0 0.0 0.00 0.00 0.00 55 1007.4
20260905202527 35 344 0.0 0.0 0.00 0.00 0.00 53 1007.4
20260905202127 35 344 0.0 6.4 0.00 0.00 0.00 51 1007.6
20260905202016 35 344 0.0 6.4 0.00 0.00 0.00 51 1007.6
20260905201527 36 311 0.0 0.0 0.00 0.00 0.00 51 1007.7
20260905201127 36 311 0.0 0.0 0.00 0.00 0.00 49 1007.8
20260905200522 36 311 0.0 8.0 0.00 0.00 0.00 48 1007.9
20260905200127 36 360 0.0 0.0 0.00 0.00 0.00 48 1008.0
20260905195527 36 360 0.0 4.8 0.00 0.00 0.00 49 1008.1
20260905195127 36 358 0.0 4.8 0.00 0.00 0.00 48 1008.2
20260905195022 36 358 0.0 4.8 0.00 0.00 0.00 48 1008.2
20260905194527 37 184 0.0 0.0 0.00 0.00 0.00 47 1008.3
20260905194127 37 184 0.0 11.3 0.00 0.00 0.00 48 1008.4
20260905193522 37 139 3.2 16.1 0.00 0.00 0.00 48 1008.5
20260905193127 37 135 1.6 9.7 0.00 0.00 0.00 47 1008.4
20260905192527 36 177 1.6 16.1 0.00 0.00 0.00 47 1008.4
20260905192127 36 239 1.6 9.7 0.00 0.00 0.00 49 1008.4
20260905192017 36 239 1.6 9.7 0.00 0.00 0.00 49 1008.4
20260905191527 36 116 1.6 6.4 0.00 0.00 0.00 49 1008.5
20260905191127 36 350 3.2 16.1 0.00 0.00 0.00 49 1008.5
20260905190522 36 29 1.6 8.0 0.00 0.00 0.00 49 1008.6
20260905190127 36 342 3.2 11.3 0.00 0.00 0.00 48 1008.6
20260905185527 36 18 3.2 12.9 0.00 0.00 0.00 49 1008.7
20260905185127 36 357 1.6 9.7 0.00 0.00 0.00 49 1008.9
20260905185016 36 357 1.6 9.7 0.00 0.00 0.00 49 1008.9
20260905184527 36 346 1.6 14.5 0.00 0.00 0.00 50 1008.9
20260905184127 36 44 3.2 17.7 0.00 0.00 0.00 49 1009.0
20260905183522 36 14 3.2 11.3 0.00 0.00 0.00 50 1009.1
20260905183127 36 39 1.6 11.3 0.00 0.00 0.00 50 1009.2
20260905182527 36 18 1.6 9.7 0.00 0.00 0.00 51 1009.3
20260905182127 36 341 1.6 9.7 0.00 0.00 0.00 51 1009.3
20260905182023 36 341 1.6 9.7 0.00 0.00 0.00 51 1009.3
20260905181527 36 352 3.2 12.9 0.00 0.00 0.00 51 1009.5
20260905181127 36 33 1.6 11.3 0.00 0.00 0.00 52 1009.6
20260905180527 36 34 1.6 9.7 0.00 0.00 0.00 51 1009.8
20260905180127 35 19 3.2 12.9 0.00 0.00 0.00 52 1010.0
20260905175527 35 284 3.2 14.5 0.00 0.00 0.00 54 1010.0
20260905175127 35 291 0.0 14.5 0.00 0.00 0.00 54 1010.1
20260905174527 35 8 3.2 9.7 0.00 0.00 0.00 54 1010.1
20260905174127 35 340 1.6 9.7 0.00 0.00 0.00 55 1010.1
20260905173527 35 7 1.6 8.0 0.00 0.00 0.00 53 1010.1
20260905173127 35 33 3.2 9.7 0.00 0.00 0.00 53 1010.0
20260905172527 35 33 1.6 16.1 0.00 0.00 0.00 53 1009.9
20260905172127 35 6 3.2 12.9 0.00 0.00 0.00 53 1009.9
20260905171527 35 353 3.2 11.3 0.00 0.00 0.00 54 1009.9
20260905171127 35 329 4.8 14.5 0.00 0.00 0.00 53 1010.0
20260905170527 35 29 1.6 11.3 0.00 0.00 0.00 54 1010.0
20260905170127 35 308 1.6 9.7 0.00 0.00 0.00 54 1010.2
20260905165527 35 341 1.6 11.3 0.00 0.00 0.00 55 1010.3
20260905165127 35 289 3.2 17.7 0.00 0.00 0.00 55 1010.4
20260905165024 35 289 3.2 17.7 0.00 0.00 0.00 55 1010.4
20260905164527 35 306 3.2 11.3 0.00 0.00 0.00 55 1010.5
20260905164127 35 332 3.2 17.7 0.00 0.00 0.00 54 1010.7
20260905163524 35 358 3.2 12.9 0.00 0.00 0.00 54 1010.8
20260905163127 35 17 3.2 14.5 0.00 0.00 0.00 56 1010.8
20260905162527 34 287 1.6 4.8 0.00 0.00 0.00 56 1011.0
20260905162127 35 350 4.8 11.3 0.00 0.00 0.00 55 1011.1
20260905162022 35 350 4.8 11.3 0.00 0.00 0.00 55 1011.1
20260905161527 35 2 3.2 25.7 0.00 0.00 0.00 57 1011.3
20260905161127 34 298 1.6 6.4 0.00 0.00 0.00 58 1011.4
20260905160523 34 34 3.2 9.7 0.00 0.00 0.00 58 1011.6
20260905160127 34 310 3.2 17.7 0.00 0.00 0.00 58 1011.7
20260905155527 33 3 1.6 12.9 0.00 0.00 0.00 58 1011.7
20260905155127 33 37 3.2 9.7 0.00 0.00 0.00 58 1011.6
20260905155023 33 37 3.2 9.7 0.00 0.00 0.00 58 1011.6
20260905154527 33 2 3.2 12.9 0.00 0.00 0.00 59 1011.6
20260905154127 33 355 6.4 22.5 0.00 0.00 0.00 58 1011.5
20260905153527 33 1 3.2 9.7 0.00 0.00 0.00 60 1011.5
20260905153127 33 301 1.6 6.4 0.00 0.00 0.00 62 1011.4
20260905152527 33 311 4.8 14.5 0.00 0.00 0.00 60 1011.4
20260905152127 33 19 3.2 12.9 0.00 0.00 0.00 61 1011.5
20260905152023 33 19 3.2 12.9 0.00 0.00 0.00 61 1011.5
20260905151527 33 349 3.2 12.9 0.00 0.00 0.00 62 1011.6
20260905151127 33 350 1.6 11.3 0.00 0.00 0.00 63 1011.6
20260905150524 33 29 1.6 6.4 0.00 0.00 0.00 63 1011.8
20260905150127 32 5 3.2 8.0 0.00 0.00 0.00 63 1012.0
20260905145527 32 352 1.6 9.7 0.00 0.00 0.00 64 1012.1
20260905145127 32 23 1.6 9.7 0.00 0.00 0.00 65 1012.1
20260905145023 32 23 1.6 9.7 0.00 0.00 0.00 65 1012.1
20260905144527 32 27 1.6 11.3 0.00 0.00 0.00 66 1012.1
20260905144127 32 14 3.2 11.3 0.00 0.00 0.00 66 1012.0
20260905143524 32 17 3.2 8.0 0.00 0.00 0.00 66 1011.9
20260905143127 31 2 1.6 8.0 0.00 0.00 0.00 68 1011.9
20260905142527 31 328 3.2 14.5 0.00 0.00 0.00 68 1011.8
20260905142127 31 2 3.2 11.3 0.00 0.00 0.00 68 1011.7
20260905141527 31 27 3.2 16.1 0.00 0.00 0.00 68 1011.7
20260905141127 31 5 3.2 9.7 0.00 0.00 0.00 69 1011.6
20260905140524 31 19 3.2 11.3 0.00 0.00 0.00 70 1011.6
20260905140127 31 359 1.6 9.7 0.00 0.00 0.00 71 1011.7
20260905135527 30 3 1.6 11.3 0.00 0.00 0.00 72 1011.8
20260905135127 30 343 1.6 6.4 0.00 0.00 0.00 73 1011.8
20260905135026 30 343 1.6 6.4 0.00 0.00 0.00 73 1011.8
20260905134527 30 2 1.6 9.7 0.00 0.00 0.00 74 1012.0
20260905134127 30 353 1.6 9.7 0.00 0.00 0.00 74 1012.1
20260905133523 30 12 3.2 14.5 0.00 0.00 0.00 75 1012.2
20260905133127 29 12 3.2 8.0 0.00 0.00 0.00 75 1012.2
20260905132527 29 12 3.2 12.9 0.00 0.00 0.00 76 1012.3
20260905132127 29 17 3.2 12.9 0.00 0.00 0.00 77 1012.3
20260905132024 29 17 3.2 12.9 0.00 0.00 0.00 77 1012.3
20260905131527 28 7 1.6 8.0 0.00 0.00 0.00 78 1012.2
20260905131127 28 28 3.2 9.7 0.00 0.00 0.00 79 1012.3
20260905130524 28 336 3.2 8.0 0.00 0.00 0.00 80 1012.3
20260905130127 28 18 3.2 16.1 0.00 0.00 0.00 81 1012.3
20260905125527 27 360 1.6 14.5 0.00 0.00 0.00 82 1012.2
20260905125127 27 29 3.2 9.7 0.00 0.00 0.00 82 1012.2
20260905125023 27 29 3.2 9.7 0.00 0.00 0.00 82 1012.2
20260905124527 27 9 3.2 17.7 0.00 0.00 0.00 83 1012.2
20260905124127 27 23 3.2 11.3 0.00 0.00 0.00 84 1012.1
20260905123527 27 23 3.2 12.9 0.00 0.00 0.00 85 1012.0
20260905123127 26 25 4.8 11.3 0.00 0.00 0.00 86 1012.0
20260905122527 26 17 1.6 8.0 0.00 0.00 0.00 87 1012.0
20260905122127 26 357 1.6 8.0 0.00 0.00 0.00 88 1012.1
20260905121527 26 350 1.6 9.7 0.00 0.00 0.00 88 1012.1